CW3999 Weather Reports


Display with metric or nautical units.
time (UTC)temp
F
wind
direction
speed
MPH
gust
MPH
rain 1hr
in
rain 24hr
in
rain mn
in
humidity
%
barometer
mb
20260906022706 67 167 0.0 0.0 0.00 0.04 0.04 34 1013.4
20260906022203 68 167 0.0 0.0 0.00 0.04 0.04 35 1013.5
20260906021201 68 167 0.0 0.0 0.00 0.04 0.04 37 1013.5
20260906020703 68 169 0.0 0.0 0.00 0.04 0.04 39 1013.5
20260906020204 68 169 0.0 0.0 0.00 0.04 0.04 40 1013.5
20260906015703 68 169 0.0 0.0 0.00 0.04 0.04 40 1013.5
20260906015203 69 169 0.0 0.0 0.00 0.04 0.04 40 1013.6
20260906014646 69 169 0.0 0.0 0.00 0.04 0.04 40 1013.6
20260906014130 69 167 0.0 0.0 0.00 0.04 0.04 40 1013.6
20260906013630 69 302 0.0 0.0 0.00 0.04 0.04 41 1013.7
20260906012130 69 300 0.0 0.0 0.00 0.04 0.04 41 1013.6
20260906011630 69 300 0.0 0.0 0.00 0.04 0.04 41 1013.6
20260906011129 69 300 0.0 0.0 0.00 0.04 0.04 41 1013.6
20260906010130 69 300 0.0 0.0 0.00 0.04 0.04 40 1013.6
20260906005631 69 300 0.0 0.0 0.00 0.04 0.04 40 1013.6
20260906005135 69 300 0.0 0.0 0.00 0.04 0.04 40 1013.6
20260906004626 69 300 0.0 0.0 0.00 0.04 0.04 40 1013.7
20260906004117 69 300 0.0 0.0 0.00 0.04 0.04 40 1013.7
20260906002603 69 300 0.0 0.0 0.00 0.04 0.04 40 1013.7
20260906002103 69 300 0.0 0.0 0.00 0.04 0.04 40 1013.7
20260906001603 70 300 0.0 0.0 0.00 0.04 0.04 41 1013.7
20260906001104 70 300 0.0 0.0 0.00 0.04 0.04 41 1013.6
20260905235602 70 300 0.0 0.0 0.00 0.05 0.04 41 1013.7
20260905234604 70 300 0.0 0.0 0.00 0.05 0.04 40 1013.7
20260905234103 70 300 0.0 0.0 0.00 0.05 0.04 40 1013.7
20260905232603 71 302 0.0 0.0 0.00 0.05 0.04 40 1013.7
20260905232104 71 302 0.0 0.0 0.00 0.05 0.04 39 1013.7
20260905231602 71 299 0.0 0.0 0.00 0.05 0.04 39 1013.7
20260905231101 72 296 0.0 0.0 0.00 0.05 0.04 38 1013.8
20260905230603 72 234 0.0 0.0 0.00 0.05 0.04 38 1013.9
20260905225602 72 188 0.0 0.0 0.00 0.05 0.04 38 1013.9
20260905224603 72 188 0.0 0.0 0.00 0.05 0.04 38 1014.0
20260905224102 71 188 0.0 0.0 0.00 0.05 0.04 37 1014.1
20260905223603 71 188 0.0 0.0 0.00 0.05 0.04 38 1014.1
20260905223102 73 200 0.0 0.0 0.00 0.05 0.04 37 1014.2
20260905222602 74 286 0.0 0.0 0.00 0.05 0.04 37 1014.2
20260905222102 74 289 0.0 0.0 0.00 0.05 0.04 36 1014.3
20260905221603 74 186 0.0 0.0 0.00 0.05 0.04 36 1014.3
20260905221101 74 186 0.0 0.0 0.00 0.05 0.04 35 1014.4
20260905220602 74 186 0.0 0.0 0.00 0.05 0.04 34 1014.4
20260905213102 71 331 0.0 0.0 0.00 0.05 0.04 30 1014.6
20260905212101 71 336 0.0 0.0 0.00 0.05 0.04 29 1014.6
20260905211602 71 306 0.0 0.0 0.00 0.05 0.04 25 1014.7
20260905211103 70 305 0.0 0.0 0.00 0.05 0.04 24 1014.7
20260905210601 70 304 0.0 0.0 0.00 0.05 0.04 21 1014.7
20260905205104 69 303 0.0 0.0 0.00 0.05 0.04 23 1014.9
20260905204603 70 303 0.0 0.0 0.00 0.05 0.04 20 1014.9
20260905204101 70 303 0.0 0.0 0.00 0.05 0.04 19 1014.9
20260905203601 70 304 0.0 0.0 0.00 0.05 0.04 24 1014.9
20260905202602 71 171 0.0 0.0 0.00 0.05 0.04 27 1015.0
20260905202102 70 171 0.0 0.0 0.00 0.05 0.04 26 1015.0
20260905201103 70 171 0.0 0.0 0.00 0.05 0.04 25 1014.9
20260905200558 70 207 0.0 0.0 0.00 0.05 0.04 29 1014.9
20260905200045 70 207 0.0 0.0 0.00 0.05 0.04 27 1015.0
20260905195542 69 207 0.0 0.0 0.00 0.05 0.04 26 1015.0
20260905195032 69 295 0.0 0.0 0.00 0.05 0.04 22 1015.0
20260905194532 69 333 0.0 0.0 0.00 0.05 0.04 20 1015.0
20260905193531 68 333 0.0 0.0 0.00 0.05 0.04 17 1015.1
20260905192531 67 30 0.0 0.0 0.00 0.05 0.04 17 1015.2
20260905192022 67 30 0.0 0.0 0.00 0.05 0.04 15 1015.2
20260905191518 68 30 0.0 0.0 0.00 0.05 0.04 16 1015.3
20260905191012 68 30 0.0 0.0 0.00 0.05 0.04 6 1015.3
20260905190010 67 35 0.0 0.0 0.00 0.05 0.04 11 1015.4
20260905185510 67 19 0.0 0.0 0.00 0.05 0.04 2 1015.5
20260905185005 67 18 0.0 0.0 0.00 0.05 0.04 100 1015.5
20260905184505 66 18 0.0 0.0 0.00 0.05 0.04 100 1015.5
20260905184002 65 18 0.0 0.0 0.00 0.05 0.04 100 1015.6
20260905183503 64 18 0.0 0.0 0.00 0.05 0.04 100 1015.6
20260905181504 61 28 0.0 0.0 0.00 0.05 0.04 100 1015.8
20260905181003 61 0 0.0 0.0 0.00 0.05 0.04 100 1015.8
20260905180501 61 317 0.0 0.0 0.00 0.05 0.04 100 1015.8
20260905180003 60 319 0.0 0.0 0.00 0.05 0.04 100 1015.9
20260905175504 60 301 0.0 0.0 0.00 0.05 0.04 100 1015.9
20260905175003 59 301 0.0 0.0 0.00 0.05 0.04 100 1015.9
20260905174504 59 301 0.0 0.0 0.00 0.05 0.04 100 1015.9
20260905174002 59 301 0.0 0.0 0.00 0.05 0.04 100 1015.9
20260905173504 58 301 0.0 0.0 0.00 0.05 0.04 100 1015.9
20260905173004 58 301 0.0 0.0 0.00 0.05 0.04 100 1016.0
20260905172502 58 301 0.0 0.0 0.00 0.05 0.04 100 1016.0
20260905172002 58 301 0.0 0.0 0.00 0.05 0.04 100 1016.0
20260905171504 59 301 0.0 0.0 0.00 0.05 0.04 100 1016.0
20260905171004 59 301 0.0 0.0 0.00 0.05 0.04 100 1016.0
20260905170503 59 301 0.0 0.0 0.00 0.05 0.04 100 1016.0
20260905170002 58 301 0.0 0.0 0.00 0.05 0.04 100 1016.0
20260905165504 58 301 0.0 0.0 0.00 0.05 0.04 100 1016.0
20260905165002 58 301 0.0 0.0 0.00 0.05 0.04 100 1016.0
20260905164503 58 301 0.0 0.0 0.00 0.05 0.04 100 1016.0
20260905164002 58 301 0.0 0.0 0.00 0.05 0.04 100 1016.0
20260905163503 58 301 0.0 0.0 0.00 0.05 0.04 100 1016.0
20260905163004 58 301 0.0 0.0 0.00 0.05 0.04 100 1016.0
20260905162003 56 301 0.0 0.0 0.00 0.05 0.04 100 1016.0
20260905161004 56 301 0.0 0.0 0.00 0.05 0.04 100 1016.0
20260905160502 56 301 0.0 0.0 0.00 0.05 0.04 100 1016.0
20260905155502 56 301 0.0 0.0 0.00 0.05 0.04 100 1016.1
20260905154502 56 302 0.0 0.0 0.00 0.05 0.04 100 1016.0
20260905154004 56 303 0.0 0.0 0.00 0.05 0.04 100 1016.0
20260905153503 56 303 0.0 0.0 0.00 0.05 0.04 100 1016.0
20260905153004 56 303 0.0 0.0 0.00 0.05 0.04 100 1016.0
20260905152502 56 303 0.0 0.0 0.00 0.05 0.04 100 1016.0
20260905152004 55 303 0.0 0.0 0.00 0.05 0.04 100 1015.9
20260905151003 55 303 0.0 0.0 0.00 0.05 0.04 100 1015.9
20260905150503 55 303 0.0 0.0 0.00 0.05 0.04 100 1015.9
20260905145504 54 303 0.0 0.0 0.00 0.05 0.04 100 1015.9
20260905145002 54 303 0.0 0.0 0.00 0.05 0.04 100 1016.0
20260905143504 54 303 0.0 0.0 0.00 0.05 0.04 100 1015.9
20260905142504 54 303 0.0 0.0 0.00 0.05 0.04 100 1015.9
20260905142003 54 303 0.0 0.0 0.00 0.05 0.04 100 1015.8
20260905141503 54 303 0.0 0.0 0.00 0.05 0.04 100 1015.7
20260905140959 53 303 0.0 0.0 0.00 0.05 0.04 100 1015.7
20260905140444 53 303 0.0 0.0 0.00 0.05 0.04 100 1015.6
20260905135429 53 303 0.0 0.0 0.00 0.05 0.04 100 1015.6
20260905134929 54 303 0.0 0.0 0.00 0.05 0.04 100 1015.6
20260905133929 54 302 0.0 0.0 0.00 0.05 0.04 100 1015.6
20260905133431 54 305 0.0 0.0 0.00 0.05 0.04 100 1015.6
20260905132431 54 307 0.0 0.0 0.00 0.05 0.04 100 1015.6
20260905131930 54 308 0.0 0.0 0.00 0.05 0.04 100 1015.6
20260905131432 54 307 0.0 0.0 0.00 0.05 0.04 100 1015.6
20260905130932 54 307 0.0 0.0 0.00 0.05 0.04 100 1015.6
20260905125930 54 307 0.0 0.0 0.00 0.05 0.04 100 1015.5
20260905125429 54 307 0.0 0.0 0.01 0.06 0.04 100 1015.5
20260905124430 54 307 0.0 0.0 0.01 0.06 0.04 100 1015.4
20260905123930 54 307 0.0 0.0 0.01 0.06 0.04 100 1015.4
20260905123430 54 307 0.0 0.0 0.01 0.06 0.04 100 1015.4
20260905122430 54 307 0.0 0.0 0.01 0.06 0.04 100 1015.4
20260905121930 53 307 0.0 0.0 0.01 0.07 0.04 100 1015.3
20260905121429 53 308 0.0 0.0 0.01 0.07 0.04 100 1015.3
20260905120930 53 307 0.0 0.0 0.01 0.07 0.04 100 1015.2
20260905115930 53 307 0.0 0.0 0.01 0.07 0.04 100 1015.2
20260905114930 53 308 0.0 0.0 0.00 0.06 0.03 100 1015.3
20260905114431 53 307 0.0 0.0 0.00 0.06 0.03 100 1015.2
20260905113929 53 307 0.0 0.0 0.00 0.06 0.03 100 1015.1
20260905113430 53 307 0.0 0.0 0.00 0.06 0.03 100 1015.2
20260905112930 54 307 0.0 0.0 0.00 0.06 0.03 100 1015.1
20260905112429 54 308 0.0 0.0 0.00 0.06 0.03 100 1015.1
20260905111930 54 308 0.0 0.0 0.00 0.06 0.03 100 1015.1
20260905111429 54 307 0.0 0.0 0.00 0.06 0.03 100 1015.1
20260905110429 54 308 0.0 0.0 0.01 0.06 0.03 100 1015.1
20260905105929 54 307 0.0 0.0 0.01 0.06 0.03 100 1015.1
20260905105430 54 308 0.0 0.0 0.01 0.06 0.03 100 1015.0
20260905104430 54 307 0.0 0.0 0.01 0.06 0.03 100 1015.2
20260905103929 54 307 0.0 0.0 0.01 0.06 0.03 100 1015.1
20260905103430 54 307 0.0 0.0 0.01 0.06 0.03 100 1015.3
20260905102922 54 307 0.0 0.0 0.01 0.06 0.03 100 1015.3
20260905102422 54 308 0.0 0.0 0.01 0.06 0.03 100 1015.3
20260905101912 54 308 0.0 0.0 0.02 0.06 0.03 100 1015.4
20260905101414 54 307 0.0 0.0 0.02 0.06 0.03 100 1015.3
20260905100913 54 307 0.0 0.0 0.01 0.05 0.02 100 1015.3
20260905100413 54 307 0.0 0.0 0.01 0.05 0.02 100 1015.2
20260905095914 54 307 0.0 0.0 0.01 0.05 0.02 100 1015.3
20260905095413 54 308 0.0 0.0 0.01 0.05 0.02 100 1015.3
20260905094914 54 307 0.0 0.0 0.01 0.05 0.02 100 1015.2
20260905094415 54 307 0.0 0.0 0.01 0.05 0.02 100 1015.3
20260905093914 54 307 0.0 0.0 0.02 0.05 0.02 100 1015.2
20260905093413 54 308 0.0 0.0 0.02 0.05 0.02 100 1015.3
20260905092914 54 308 0.0 0.0 0.02 0.05 0.02 100 1015.3
20260905092410 54 307 0.0 0.0 0.01 0.04 0.02 100 1015.2
20260905091409 54 308 0.0 0.0 0.01 0.04 0.01 100 1015.1
20260905090910 54 307 0.0 0.0 0.01 0.04 0.01 100 1015.2
20260905085910 54 307 0.0 0.0 0.01 0.04 0.01 100 1015.1
20260905085410 54 307 0.0 0.0 0.01 0.04 0.01 100 1015.2
20260905084410 54 307 0.0 0.0 0.00 0.03 0.01 100 1015.1
20260905083911 54 307 0.0 0.0 0.00 0.03 0.00 100 1015.0
20260905083405 54 308 0.0 0.0 0.00 0.03 0.00 100 1014.9
20260905082903 54 308 0.0 0.0 0.00 0.03 0.00 100 1014.9
20260905082404 54 307 0.0 0.0 0.00 0.03 0.00 100 1014.9
20260905081400 53 308 0.0 0.0 0.00 0.03 0.00 100 1014.9
20260905080900 53 307 0.0 0.0 0.00 0.03 0.00 100 1014.9
20260905080401 53 307 0.0 0.0 0.00 0.03 0.00 100 1014.7
20260905075900 53 307 0.0 0.0 0.00 0.03 0.00 100 1014.6
20260905075401 53 307 0.0 0.0 0.00 0.03 0.00 100 1014.7
20260905074901 53 307 0.0 0.0 0.00 0.03 0.00 100 1014.7
20260905074404 53 308 0.0 0.0 0.00 0.03 0.00 100 1014.7
20260905073903 53 308 0.0 0.0 0.00 0.03 0.00 100 1014.6
20260905073403 53 307 0.0 0.0 0.00 0.03 0.00 100 1014.5
20260905072903 53 307 0.0 0.0 0.00 0.03 0.00 100 1014.6
20260905072403 53 308 0.0 0.0 0.00 0.03 0.00 100 1014.6
20260905071903 53 308 0.0 0.0 0.00 0.03 0.00 100 1014.6
20260905071402 53 308 0.0 0.0 0.00 0.03 0.00 100 1014.6
20260905070403 53 308 0.0 0.0 0.00 0.03 0.00 100 1014.6
20260905065903 53 308 0.0 0.0 0.00 0.03 0.03 100 1014.6
20260905065402 53 308 0.0 0.0 0.00 0.03 0.03 100 1014.6
20260905064403 53 308 0.0 0.0 0.00 0.03 0.03 100 1014.5
20260905063404 53 308 0.0 0.0 0.00 0.03 0.03 100 1014.4
20260905062901 53 308 0.0 0.0 0.00 0.03 0.03 100 1014.3
20260905061907 53 308 0.0 0.0 0.00 0.03 0.03 100 1014.2
20260905061403 54 308 0.0 0.0 0.00 0.03 0.03 100 1014.1
20260905060903 54 308 0.0 0.0 0.00 0.03 0.03 100 1014.2
20260905060403 54 307 0.0 0.0 0.00 0.03 0.03 100 1014.2
20260905055902 54 308 0.0 0.0 0.00 0.03 0.03 100 1014.1
20260905055404 54 308 0.0 0.0 0.00 0.03 0.03 100 1014.0
20260905054903 54 308 0.0 0.0 0.00 0.03 0.03 100 1014.1
20260905054403 55 308 0.0 0.0 0.00 0.03 0.03 100 1014.1
20260905053901 55 308 0.0 0.0 0.00 0.03 0.03 100 1014.2
20260905053402 55 308 0.0 0.0 0.00 0.03 0.03 100 1014.1
20260905052904 55 308 0.0 0.0 0.00 0.03 0.03 100 1014.1
20260905052404 55 308 0.0 0.0 0.00 0.03 0.03 100 1014.1
20260905051902 55 307 0.0 0.0 0.00 0.03 0.03 100 1014.1
20260905051402 55 307 0.0 0.0 0.00 0.03 0.03 100 1014.2
20260905050903 55 308 0.0 0.0 0.00 0.03 0.03 100 1014.1
20260905050404 55 308 0.0 0.0 0.00 0.03 0.03 100 1014.1
20260905045903 55 308 0.0 0.0 0.00 0.03 0.03 100 1014.2
20260905044402 56 308 0.0 0.0 0.00 0.03 0.03 100 1014.1
20260905043402 56 308 0.0 0.0 0.00 0.03 0.03 100 1014.1
20260905042902 56 308 0.0 0.0 0.00 0.03 0.03 100 1014.1
20260905042404 56 308 0.0 0.0 0.00 0.03 0.03 100 1014.1
20260905041902 56 308 0.0 0.0 0.00 0.03 0.03 100 1014.0
20260905040404 56 308 0.0 0.0 0.00 0.03 0.03 100 1014.0
20260905035904 57 308 0.0 0.0 0.00 0.03 0.03 100 1013.9
20260905035403 57 308 0.0 0.0 0.00 0.03 0.03 100 1013.8
20260905034904 57 308 0.0 0.0 0.00 0.03 0.03 100 1013.7
20260905034402 57 308 0.0 0.0 0.00 0.03 0.03 100 1013.6
20260905033904 57 308 0.0 0.0 0.00 0.03 0.03 100 1013.6
20260905033403 57 308 0.0 0.0 0.00 0.03 0.03 100 1013.6
20260905032903 57 308 0.0 0.0 0.00 0.03 0.03 100 1013.5
20260905032402 58 308 0.0 0.0 0.00 0.03 0.03 100 1013.3
20260905031902 58 308 0.0 0.0 0.00 0.03 0.03 100 1013.3
20260905031402 58 308 0.0 0.0 0.00 0.03 0.03 100 1013.2
20260905030402 58 308 0.0 0.0 0.00 0.03 0.03 100 1013.2
20260905025904 58 308 0.0 0.0 0.00 0.03 0.03 100 1013.1
20260905025402 59 308 0.0 0.0 0.00 0.03 0.03 100 1013.2
20260905024902 59 308 0.0 0.0 0.00 0.03 0.03 100 1013.1
20260905024402 59 311 0.0 0.0 0.00 0.03 0.03 100 1013.1
20260905023903 59 311 0.0 0.0 0.00 0.03 0.03 100 1013.1
20260905023402 59 311 0.0 0.0 0.00 0.03 0.03 100 1013.1